| time (UTC) | temp C | wind direction | speed KPH | gust KPH | rain 1hr cm | rain 24hr cm | rain mn cm | humidity % | barometer mb |
| 20260504081541 | 2 | 290 | 0.0 | 0.0 | 0.00 | 0.00 | 0.00 | 94 | 972.3 |
| 20260504050017 | 5 | 291 | 0.0 | 0.0 | 0.00 | 0.00 | 0.00 | 85 | 972.6 |
| 20260504044523 | 5 | 291 | 0.0 | 4.8 | 0.00 | 0.00 | 0.00 | 85 | 972.7 |
| 20260504043115 | 4 | 290 | 0.0 | 0.0 | 0.00 | 0.00 | 0.00 | 88 | 972.5 |
| 20260504041512 | 4 | 290 | 0.0 | 0.0 | 0.00 | 0.00 | 0.00 | 86 | 972.5 |
| 20260504040009 | 5 | 290 | 0.0 | 0.0 | 0.00 | 0.00 | 0.00 | 85 | 972.6 |
| 20260504034507 | 5 | 290 | 0.0 | 0.0 | 0.00 | 0.00 | 0.00 | 85 | 972.6 |
| 20260504033008 | 5 | 290 | 0.0 | 0.0 | 0.00 | 0.00 | 0.00 | 84 | 972.4 |
| 20260504031507 | 6 | 360 | 0.0 | 1.6 | 0.00 | 0.00 | 0.00 | 83 | 972.5 |
| 20260504030008 | 6 | 360 | 0.0 | 3.2 | 0.00 | 0.00 | 0.00 | 80 | 972.7 |
| 20260504024508 | 6 | 360 | 0.0 | 6.4 | 0.00 | 0.00 | 0.00 | 79 | 972.8 |
| 20260504023008 | 7 | 360 | 1.6 | 4.8 | 0.00 | 0.00 | 0.00 | 77 | 972.6 |
| 20260504021505 | 7 | 360 | 0.0 | 0.0 | 0.00 | 0.00 | 0.00 | 77 | 972.3 |
| 20260504020009 | 7 | 360 | 0.0 | 1.6 | 0.00 | 0.00 | 0.00 | 75 | 972.3 |
| 20260504014507 | 8 | 360 | 0.0 | 0.0 | 0.00 | 0.00 | 0.00 | 72 | 972.1 |
| 20260504013002 | 9 | 360 | 0.0 | 1.6 | 0.00 | 0.00 | 0.00 | 70 | 971.8 |
| 20260504011501 | 10 | 360 | 0.0 | 1.6 | 0.00 | 0.00 | 0.00 | 66 | 971.8 |
| 20260504010002 | 10 | 360 | 1.6 | 3.2 | 0.00 | 0.00 | 0.00 | 65 | 971.5 |
| 20260504004501 | 11 | 208 | 0.0 | 1.6 | 0.00 | 0.00 | 0.00 | 61 | 971.4 |
| 20260504003000 | 13 | 208 | 0.0 | 3.2 | 0.00 | 0.00 | 0.00 | 52 | 971.4 |
| 20260504001618 | 14 | 208 | 1.6 | 3.2 | 0.00 | 0.00 | 0.00 | 48 | 971.3 |
| 20260504000059 | 15 | 208 | 0.0 | 3.2 | 0.00 | 0.00 | 0.00 | 42 | 971.0 |
| 20260504000001 | 15 | 208 | 0.0 | 3.2 | 0.00 | 0.00 | 0.00 | 42 | 971.0 |
| 20260503234559 | 16 | 74 | 0.0 | 14.5 | 0.00 | 0.00 | 0.00 | 40 | 970.8 |
| 20260503233059 | 17 | 24 | 0.0 | 3.2 | 0.00 | 0.00 | 0.00 | 38 | 970.7 |
| 20260503231558 | 18 | 201 | 0.0 | 8.0 | 0.00 | 0.00 | 0.00 | 35 | 970.7 |
| 20260503230100 | 19 | 214 | 0.0 | 6.4 | 0.00 | 0.00 | 0.00 | 33 | 970.7 |
| 20260503224556 | 19 | 99 | 1.6 | 6.4 | 0.00 | 0.00 | 0.00 | 32 | 970.7 |
| 20260503223056 | 18 | 166 | 4.8 | 14.5 | 0.00 | 0.00 | 0.00 | 31 | 970.7 |
| 20260503221556 | 20 | 228 | 4.8 | 11.3 | 0.00 | 0.00 | 0.00 | 29 | 970.7 |
| 20260503220055 | 20 | 227 | 0.0 | 11.3 | 0.00 | 0.00 | 0.00 | 31 | 970.7 |
| 20260503214552 | 19 | 17 | 1.6 | 11.3 | 0.00 | 0.00 | 0.00 | 27 | 970.8 |
| 20260503213056 | 20 | 196 | 1.6 | 11.3 | 0.00 | 0.00 | 0.00 | 28 | 971.0 |
| 20260503211548 | 19 | 273 | 6.4 | 14.5 | 0.00 | 0.00 | 0.00 | 28 | 971.1 |
| 20260503210052 | 19 | 227 | 4.8 | 17.7 | 0.00 | 0.00 | 0.00 | 30 | 971.4 |
| 20260503204543 | 18 | 208 | 6.4 | 17.7 | 0.00 | 0.00 | 0.00 | 29 | 971.5 |
| 20260503203050 | 18 | 251 | 6.4 | 17.7 | 0.00 | 0.00 | 0.00 | 28 | 971.8 |
| 20260503201542 | 18 | 217 | 6.4 | 14.5 | 0.00 | 0.00 | 0.00 | 31 | 971.8 |
| 20260503200046 | 18 | 5 | 3.2 | 12.9 | 0.00 | 0.00 | 0.00 | 31 | 972.1 |
| 20260503194542 | 17 | 213 | 4.8 | 12.9 | 0.00 | 0.00 | 0.00 | 30 | 972.3 |
| 20260503193044 | 18 | 267 | 4.8 | 12.9 | 0.00 | 0.00 | 0.00 | 32 | 972.5 |
| 20260503191536 | 17 | 86 | 4.8 | 19.3 | 0.00 | 0.00 | 0.00 | 29 | 972.7 |
| 20260503190035 | 17 | 202 | 4.8 | 11.3 | 0.00 | 0.00 | 0.00 | 30 | 972.9 |
| 20260503184535 | 16 | 150 | 8.0 | 14.5 | 0.00 | 0.00 | 0.00 | 30 | 973.0 |
| 20260503183050 | 17 | 323 | 8.0 | 17.7 | 0.00 | 0.00 | 0.00 | 30 | 973.4 |
| 20260503181531 | 15 | 5 | 3.2 | 14.5 | 0.00 | 0.00 | 0.00 | 32 | 973.6 |
| 20260503180029 | 15 | 188 | 6.4 | 14.5 | 0.00 | 0.00 | 0.00 | 34 | 973.7 |
| 20260503174528 | 15 | 317 | 6.4 | 24.1 | 0.00 | 0.00 | 0.00 | 33 | 973.9 |
| 20260503173028 | 14 | 298 | 8.0 | 17.7 | 0.00 | 0.00 | 0.00 | 35 | 974.0 |
| 20260503171526 | 14 | 245 | 8.0 | 24.1 | 0.00 | 0.00 | 0.00 | 32 | 974.2 |